Date String (YYYY-MM-DD hh:mm:ss) UTC,Instrument flags,Ambient pressure (hPa),Sample flow (lpm),Bypass flow (lpm),Sample temperature (°C),Ambient temperature (°C),ASC tube jacket temperature (°C),LED temperature (°C),Box temperature (°C),Sample RH (%),Span deviation,Mass concentration (μg/m³),Mass concentration (μg/m³),Mass concentration (μg/m³)
DateTimeUTC,F1_M11,P_M11,Q1_M11,Q2_M11,T1_M11,T2_M11,T3_M11,T4_M11,T5_M11,U1_M11,ZSPAN_M11,X0_M11,X2_M11,X1_M11
2022-06-11 02:00:00,,0824.6,5.00,0.00,28.8,27.2,00.0,37.7,30.6,25.3,0000.0,0020.27,0005.68,0003.68
2022-06-11 02:01:00,,0824.6,5.00,0.00,28.8,27.4,00.0,37.7,30.7,24.7,0000.0,0019.26,0005.65,0003.67
2022-06-11 02:02:00,,0824.7,5.00,0.00,28.9,27.6,00.0,37.7,30.8,23.9,0000.0,0019.54,0005.69,0003.69
2022-06-11 02:03:00,,0824.7,5.00,0.00,28.9,27.7,00.0,37.7,30.8,24.0,0000.0,0018.62,0005.63,0003.69
2022-06-11 02:04:00,,0824.7,5.00,0.00,29.0,27.9,00.0,37.7,30.9,23.8,0000.0,0018.95,0005.64,0003.67
2022-06-11 02:05:00,,0824.7,4.99,0.00,29.0,28.0,00.0,37.7,31.0,23.2,0000.0,0020.26,0005.67,0003.65
2022-06-11 02:06:00,,0824.7,4.99,0.00,29.1,28.1,00.0,37.8,31.0,23.5,0000.0,0019.24,0005.67,0003.66
2022-06-11 02:07:00,,0824.6,5.01,0.00,29.1,27.6,00.0,37.7,30.9,23.8,0000.0,0018.95,0005.60,0003.66
2022-06-11 02:08:00,,0824.6,5.01,0.00,29.0,26.9,00.0,37.7,30.7,23.2,0000.0,0019.68,0005.59,0003.66
2022-06-11 02:09:00,,0824.6,4.99,0.00,28.9,26.6,00.0,37.6,30.6,21.9,0000.0,0020.44,0005.54,0003.65
2022-06-11 02:10:00,,0824.6,5.00,0.00,28.8,26.6,00.0,37.6,30.5,23.7,0000.0,0020.74,0005.54,0003.64
2022-06-11 02:11:00,,0824.6,5.01,0.00,28.8,26.8,00.0,37.6,30.5,23.8,0000.0,0019.59,0005.55,0003.64
2022-06-11 02:12:00,,0824.7,5.00,0.00,28.7,26.9,00.0,37.6,30.5,24.0,0000.0,0020.48,0005.55,0003.64
2022-06-11 02:13:00,,0824.6,4.99,0.00,28.8,27.1,00.0,37.6,30.6,23.6,0000.0,0019.53,0005.56,0003.63
2022-06-11 02:14:00,,0824.7,5.00,0.00,28.8,27.3,00.0,37.6,30.6,23.6,0000.0,0019.67,0005.62,0003.62
2022-06-11 02:15:00,,0824.7,4.99,0.00,28.8,27.5,00.0,37.6,30.7,23.5,0000.0,0018.71,0005.57,0003.62
2022-06-11 02:16:00,,0824.8,5.00,0.00,28.8,27.7,00.0,37.7,30.8,23.5,0000.0,0017.33,0005.49,0003.63
2022-06-11 02:17:00,,0824.8,5.01,0.00,28.9,27.8,00.0,37.7,30.8,23.5,0000.0,0017.38,0005.50,0003.62
2022-06-11 02:18:00,,0824.8,4.99,0.00,28.9,28.0,00.0,37.7,30.9,23.5,0000.0,0018.05,0005.54,0003.63
2022-06-11 02:19:00,,0824.9,4.99,0.00,29.0,28.1,00.0,37.7,31.0,23.6,0000.0,0018.79,0005.50,0003.64
2022-06-11 02:20:00,,0824.8,5.00,0.00,29.0,28.1,00.0,37.7,31.0,23.6,0000.0,0018.62,0005.50,0003.66
2022-06-11 02:21:00,,0824.8,5.02,0.00,29.0,27.5,00.0,37.7,30.9,24.5,0000.0,0018.67,0005.47,0003.67
2022-06-11 02:22:00,,0824.8,4.98,0.00,28.9,26.9,00.0,37.6,30.7,26.1,0000.0,0019.63,0005.49,0003.68
2022-06-11 02:23:00,,0824.8,5.01,0.00,28.9,26.7,00.0,37.6,30.6,25.6,0000.0,0021.31,0005.54,0003.71
2022-06-11 02:24:00,,0824.7,5.00,0.00,28.8,26.7,00.0,37.6,30.5,25.2,0000.0,0022.16,0005.56,0003.74
2022-06-11 02:25:00,,0824.7,4.98,0.00,28.7,26.8,00.0,37.6,30.4,25.1,0000.0,0022.61,0005.59,0003.77
2022-06-11 02:26:00,,0824.7,5.00,0.00,28.7,27.0,00.0,37.6,30.5,24.9,0000.0,0022.94,0005.63,0003.79
2022-06-11 02:27:00,,0824.7,5.00,0.00,28.7,27.2,00.0,37.6,30.5,24.9,0000.0,0022.77,0005.62,0003.80
2022-06-11 02:28:00,,0824.7,4.99,0.00,28.7,27.3,00.0,37.6,30.6,24.9,0000.0,0023.31,0005.68,0003.82
2022-06-11 02:29:00,,0824.7,5.00,0.00,28.8,27.5,00.0,37.6,30.7,24.7,0000.0,0022.54,0005.68,0003.83
2022-06-11 02:30:00,,0824.6,5.00,0.00,28.8,27.7,00.0,37.6,30.8,24.5,0000.0,0021.92,0005.69,0003.84
2022-06-11 02:31:00,,0824.7,5.00,0.00,28.8,27.8,00.0,37.6,30.8,24.3,0000.0,0020.94,0005.73,0003.84
2022-06-11 02:32:00,,0824.7,4.99,0.00,28.9,28.0,00.0,37.7,30.9,24.1,0000.0,0021.06,0005.74,0003.85
2022-06-11 02:33:00,,0824.7,5.00,0.00,28.9,28.1,00.0,37.7,30.9,24.1,0000.0,0020.69,0005.72,0003.86
2022-06-11 02:34:00,,0824.7,5.00,0.00,29.0,28.2,00.0,37.7,31.0,24.9,0000.0,0019.10,0005.69,0003.86
2022-06-11 02:35:00,,0824.8,5.01,0.00,29.0,28.1,00.0,37.7,31.0,25.4,0000.0,0018.76,0005.66,0003.87
2022-06-11 02:36:00,,0824.7,5.00,0.00,29.0,27.5,00.0,37.7,30.8,25.4,0000.0,0017.99,0005.60,0003.87
2022-06-11 02:37:00,,0824.7,4.99,0.00,28.9,26.8,00.0,37.6,30.6,25.2,0000.0,0017.18,0005.57,0003.87
2022-06-11 02:38:00,,0824.6,5.01,0.00,28.8,26.6,00.0,37.6,30.5,25.2,0000.0,0017.45,0005.60,0003.88
2022-06-11 02:39:00,,0824.6,5.00,0.00,28.7,26.6,00.0,37.6,30.4,24.9,0000.0,0018.42,0005.59,0003.89
2022-06-11 02:40:00,,0824.7,5.00,0.00,28.7,26.7,00.0,37.6,30.4,24.6,0000.0,0018.80,0005.51,0003.89
2022-06-11 02:41:00,,0824.7,5.00,0.00,28.7,26.9,00.0,37.6,30.5,24.6,0000.0,0018.10,0005.56,0003.90
2022-06-11 02:42:00,,0824.8,5.00,0.00,28.7,27.1,00.0,37.6,30.6,24.8,0000.0,0018.97,0005.58,0003.92
2022-06-11 02:43:00,,0824.8,5.01,0.00,28.7,27.3,00.0,37.6,30.6,25.0,0000.0,0018.82,0005.63,0003.94
2022-06-11 02:44:00,,0824.7,5.00,0.00,28.7,27.4,00.0,37.6,30.7,25.1,0000.0,0018.86,0005.70,0003.95
2022-06-11 02:45:00,,0824.8,5.00,0.00,28.8,27.6,00.0,37.6,30.7,25.3,0000.0,0018.50,0005.73,0003.97
2022-06-11 02:46:00,,0824.8,4.99,0.00,28.8,27.7,00.0,37.6,30.8,25.7,0000.0,0017.67,0005.79,0003.98
2022-06-11 02:47:00,,0824.7,5.00,0.00,28.8,27.9,00.0,37.6,30.8,26.5,0000.0,0017.92,0005.83,0003.99
2022-06-11 02:48:00,,0824.7,5.01,0.00,28.9,28.0,00.0,37.7,30.9,26.1,0000.0,0018.11,0005.84,0003.99
2022-06-11 02:49:00,,0824.6,5.00,0.00,28.9,28.1,00.0,37.7,30.9,25.6,0000.0,0018.32,0005.88,0004.00
2022-06-11 02:50:00,,0824.6,4.99,0.00,29.0,28.2,00.0,37.7,31.0,25.5,0000.0,0017.90,0005.95,0004.02
2022-06-11 02:51:00,,0824.7,5.00,0.00,29.0,28.1,00.0,37.7,31.0,25.4,0000.0,0017.38,0006.06,0004.05
2022-06-11 02:52:00,,0824.7,5.00,0.00,29.0,27.5,00.0,37.7,30.8,25.3,0000.0,0017.61,0006.12,0004.07
2022-06-11 02:53:00,,0824.7,5.00,0.00,28.9,27.1,00.0,37.7,30.7,25.5,0000.0,0017.32,0006.19,0004.09
2022-06-11 02:54:00,,0824.7,5.00,0.00,28.9,27.1,00.0,37.7,30.7,25.7,0000.0,0017.72,0006.19,0004.09
2022-06-11 02:55:00,,0824.6,5.01,0.00,28.8,27.1,00.0,37.7,30.6,26.0,0000.0,0017.63,0006.17,0004.09
2022-06-11 02:56:00,,0824.7,5.00,0.00,28.8,27.2,00.0,37.7,30.6,26.9,0000.0,0017.90,0006.15,0004.08
2022-06-11 02:57:00,,0824.6,4.99,0.00,28.8,27.4,00.0,37.7,30.7,26.8,0000.0,0018.40,0006.14,0004.07
2022-06-11 02:58:00,,0824.7,5.02,0.00,28.8,27.5,00.0,37.7,30.8,26.4,0000.0,0018.74,0006.14,0004.09
2022-06-11 02:59:00,,0824.6,5.00,0.00,28.9,27.7,00.0,37.7,30.8,25.8,0000.0,0018.73,0006.12,0004.10
